Location: *
(49.0044°N, 9.5056°E)
Time: 21:07:05
(UTC+00:00)

SL-8 R/B - Pass Details

Date: 22 September 2019
Orbit: 657 x 667 km, 48.4° (Epoch: 17 October)

Event Time Altitude Azimuth Distance (km) Brightness Sun altitude
Rises 19:22:01 0° 277° (W) 2,987 8.4 -20.1°
Reaches altitude 10° 19:24:22 10° 276° (W) 2,076 7.3 -20.4°
Maximum altitude 19:29:09 77° 191° (SSW) 683 3.6 -21.1°
Enters shadow 19:30:06 56° 122° (ESE) 787 3.7 -21.3°
